,,Stat5,,Stat1,,Stat2,,Stat3,,Stat4,,Wind1,,Wind1,
time,status,PA1M_AVG,status,PR1M_SUM,status,RH1M_AVG,status,SR1M_AVG,status,TA1M_AVG,status,W1dAve1m,status,W1sAve1m,
2003-03-14, 00:00:00,VALID,921.143,VALID,0,VALID,89.5197,VALID,-0.0509425,VALID,20.5312,VALID,143,VALID,1.99514,
2003-03-14, 00:01:00,VALID,921.121,VALID,0,VALID,89.4917,VALID,-0.0339617,VALID,20.5608,VALID,136,VALID,1.28104,
2003-03-14, 00:02:00,VALID,921.098,VALID,0,VALID,89.1776,VALID,-0.101885,VALID,20.5705,VALID,131,VALID,1.88599,
2003-03-14, 00:03:00,VALID,921.089,VALID,0,VALID,89.1204,VALID,-0.0509425,VALID,20.5826,VALID,143,VALID,2.5089,
2003-03-14, 00:04:00,VALID,921.083,VALID,0,VALID,89.0708,VALID,-0.0509425,VALID,20.5956,VALID,133,VALID,1.57996,
2003-03-14, 00:05:00,VALID,921.083,VALID,0,VALID,88.95,VALID,-0.0849042,VALID,20.6028,VALID,144,VALID,1.99266,
2003-03-14, 00:06:00,VALID,921.06,VALID,0,VALID,89.039,VALID,-0.0339617,VALID,20.6125,VALID,141,VALID,1.58963,
2003-03-14, 00:07:00,VALID,921.049,VALID,0,VALID,89.1471,VALID,-0.0339617,VALID,20.5894,VALID,130,VALID,1.19821,
2003-03-14, 00:08:00,VALID,921.042,VALID,0,VALID,88.9157,VALID,-0.0509425,VALID,20.5896,VALID,148,VALID,1.69413,
2003-03-14, 00:09:00,VALID,921.023,VALID,0,VALID,88.6893,VALID,-0.0679233,VALID,20.5864,VALID,137,VALID,2.14041,
2003-03-14, 00:10:00,VALID,921.003,VALID,0,VALID,88.5825,VALID,-0.0679233,VALID,20.6087,VALID,130,VALID,1.90491,
2003-03-14, 00:11:00,VALID,920.987,VALID,0,VALID,88.5698,VALID,-0.0509425,VALID,20.6284,VALID,151,VALID,1.38916,
2003-03-14, 00:12:00,VALID,920.968,VALID,0,VALID,88.5228,VALID,-0.0849042,VALID,20.6381,VALID,137,VALID,1.51172,
2003-03-14, 00:13:00,VALID,920.958,VALID,0,VALID,88.6308,VALID,-0.0509425,VALID,20.6384,VALID,130,VALID,1.83705,
2003-03-14, 00:14:00,VALID,920.94,VALID,0,VALID,88.8012,VALID,-0.0169808,VALID,20.6279,VALID,133,VALID,1.28859,
2003-03-14, 00:15:00,VALID,920.917,VALID,0,VALID,88.8572,VALID,-0.0169808,VALID,20.6222,VALID,142,VALID,1.60221,
2003-03-14, 00:16:00,VALID,920.912,VALID,0,VALID,88.8737,VALID,0,VALID,20.6055,VALID,114,VALID,1.39196,
2003-03-14, 00:17:00,VALID,920.909,VALID,0,VALID,88.9119,VALID,-0.0509425,VALID,20.5926,VALID,115,VALID,1.70264,
2003-03-14, 00:18:00,VALID,920.893,VALID,0,VALID,89.039,VALID,-0.0339617,VALID,20.5635,VALID,137,VALID,1.28602,
2003-03-14, 00:19:00,VALID,920.888,VALID,0,VALID,89.0288,VALID,-0.0339617,VALID,20.5503,VALID,89,VALID,1.13304,
2003-03-14, 00:20:00,VALID,920.892,VALID,0,VALID,89.0428,VALID,-0.0339617,VALID,20.5501,VALID,110,VALID,1.41241,
2003-03-14, 00:21:00,VALID,920.888,VALID,0,VALID,89.2247,VALID,-0.0339617,VALID,20.5441,VALID,126,VALID,0.733724,
2003-03-14, 00:22:00,VALID,920.87,VALID,0,VALID,89.3976,VALID,-0.101885,VALID,20.5417,VALID,143,VALID,1.05134,
2003-03-14, 00:23:00,VALID,920.834,VALID,0,VALID,89.3595,VALID,-0.0509425,VALID,20.5126,VALID,144,VALID,1.48755,
2003-03-14, 00:24:00,VALID,920.811,VALID,0,VALID,89.4281,VALID,-0.0849042,VALID,20.4924,VALID,139,VALID,1.32661,
2003-03-14, 00:25:00,VALID,920.781,VALID,0,VALID,89.3874,VALID,-0.0679233,VALID,20.4862,VALID,126,VALID,2.00647,
2003-03-14, 00:26:00,VALID,920.773,VALID,0,VALID,89.3709,VALID,-0.0679233,VALID,20.4797,VALID,126,VALID,1.82694,
2003-03-14, 00:27:00,VALID,920.732,VALID,0,VALID,89.4701,VALID,-0.0849042,VALID,20.4832,VALID,139,VALID,1.40451,
2003-03-14, 00:28:00,VALID,920.717,VALID,0,VALID,89.5299,VALID,-0.0509425,VALID,20.4773,VALID,147,VALID,1.79821,
2003-03-14, 00:29:00,VALID,920.704,VALID,0,VALID,89.5693,VALID,-0.101885,VALID,20.4706,VALID,129,VALID,1.5144,
2003-03-14, 00:30:00,VALID,920.689,VALID,0,VALID,89.423,VALID,-0.0849042,VALID,20.4539,VALID,148,VALID,2.07617,
2003-03-14, 00:31:00,VALID,920.654,VALID,0,VALID,89.3315,VALID,-0.0509425,VALID,20.4636,VALID,138,VALID,2.4221,
2003-03-14, 00:32:00,VALID,920.651,VALID,0,VALID,89.2234,VALID,-0.0509425,VALID,20.4865,VALID,137,VALID,1.95833,
2003-03-14, 00:33:00,VALID,920.637,VALID,0,VALID,89.1166,VALID,-0.101885,VALID,20.4996,VALID,121,VALID,2.03798,
2003-03-14, 00:34:00,VALID,920.651,VALID,0,VALID,88.9793,VALID,-0.0849042,VALID,20.5056,VALID,130,VALID,1.78705,
2003-03-14, 00:35:00,VALID,920.628,VALID,0,VALID,88.9805,VALID,-0.0679233,VALID,20.508,VALID,126,VALID,1.58179,
2003-03-14, 00:36:00,VALID,920.622,VALID,0,VALID,89.0085,VALID,-0.0339617,VALID,20.5285,VALID,143,VALID,2.11046,
2003-03-14, 00:37:00,VALID,920.635,VALID,0,VALID,89.0962,VALID,-0.0679233,VALID,20.5255,VALID,101,VALID,1.81161,
2003-03-14, 00:38:00,VALID,920.645,VALID,0,VALID,89.2399,VALID,-0.0509425,VALID,20.5058,VALID,111,VALID,1.42803,
2003-03-14, 00:39:00,VALID,920.648,VALID,0,VALID,89.3557,VALID,-0.0849042,VALID,20.487,VALID,120,VALID,1.43685,
2003-03-14, 00:40:00,VALID,920.649,VALID,0,VALID,89.4269,VALID,-0.0679233,VALID,20.4673,VALID,140,VALID,1.23504,
2003-03-14, 00:41:00,VALID,920.648,VALID,0,VALID,89.5667,VALID,-0.0509425,VALID,20.4506,VALID,125,VALID,1.44019,
2003-03-14, 00:42:00,VALID,920.631,VALID,0,VALID,89.6888,VALID,-0.0509425,VALID,20.4377,VALID,95,VALID,1.2207,
2003-03-14, 00:43:00,VALID,920.628,VALID,0,VALID,89.3175,VALID,-0.0679233,VALID,20.4283,VALID,114,VALID,2.1308,
2003-03-14, 00:44:00,VALID,920.621,VALID,0,VALID,89.4091,VALID,-0.101885,VALID,20.4345,VALID,112,VALID,1.92969,
2003-03-14, 00:45:00,VALID,920.612,VALID,0,VALID,89.4866,VALID,-0.0679233,VALID,20.4479,VALID,112,VALID,1.78863,
2003-03-14, 00:46:00,VALID,920.603,VALID,0,VALID,89.5362,VALID,-0.0849042,VALID,20.435,VALID,115,VALID,1.26161,
2003-03-14, 00:47:00,VALID,920.6,VALID,0,VALID,89.5095,VALID,-0.101885,VALID,20.4216,VALID,118,VALID,1.48804,
2003-03-14, 00:48:00,VALID,920.606,VALID,0,VALID,89.4498,VALID,-0.101885,VALID,20.4218,VALID,103,VALID,1.84874,
2003-03-14, 00:49:00,VALID,920.591,VALID,0,VALID,89.6163,VALID,-0.0849042,VALID,20.4218,VALID,134,VALID,1.34531,
2003-03-14, 00:50:00,VALID,920.598,VALID,0,VALID,89.3506,VALID,-0.0849042,VALID,20.4089,VALID,142,VALID,2.2777,
2003-03-14, 00:51:00,VALID,920.546,VALID,0,VALID,89.2488,VALID,-0.0679233,VALID,20.4253,VALID,139,VALID,2.25304,
2003-03-14, 00:52:00,VALID,920.538,VALID,0,VALID,89.2488,VALID,-0.0509425,VALID,20.4315,VALID,140,VALID,2.14107,
2003-03-14, 00:53:00,VALID,920.525,VALID,0,VALID,89.2857,VALID,-0.0849042,VALID,20.4415,VALID,135,VALID,1.52539,
2003-03-14, 00:54:00,VALID,920.52,VALID,0,VALID,89.4307,VALID,-0.0509425,VALID,20.4315,VALID,129,VALID,1.30469,
2003-03-14, 00:55:00,VALID,920.504,VALID,0,VALID,89.4803,VALID,-0.0849042,VALID,20.4151,VALID,127,VALID,1.24509,
2003-03-14, 00:56:00,VALID,920.502,VALID,0,VALID,89.5769,VALID,-0.0679233,VALID,20.4091,VALID,137,VALID,1.26065,
2003-03-14, 00:57:00,VALID,920.468,VALID,0,VALID,89.3913,VALID,-0.0339617,VALID,20.3927,VALID,145,VALID,2.43945,
2003-03-14, 00:58:00,VALID,920.452,VALID,0,VALID,89.4472,VALID,-0.0679233,VALID,20.4024,VALID,124,VALID,2.17165,
2003-03-14, 00:59:00,VALID,920.44,VALID,0,VALID,89.774,VALID,-0.0679233,VALID,20.3992,VALID,95,VALID,1.36743,
2003-03-14, 01:00:00,VALID,920.44,VALID,0,VALID,89.8452,VALID,-0.0679233,VALID,20.3639,VALID,120,VALID,1.61027,
2003-03-14, 01:01:00,VALID,920.409,VALID,0,VALID,89.6977,VALID,-0.0679233,VALID,20.3477,VALID,128,VALID,1.77478,
2003-03-14, 01:02:00,VALID,920.407,VALID,0,VALID,89.788,VALID,-0.0339617,VALID,20.3375,VALID,131,VALID,1.54261,
2003-03-14, 01:03:00,VALID,920.394,VALID,0,VALID,89.8834,VALID,-0.0509425,VALID,20.3475,VALID,133,VALID,1.46788,
2003-03-14, 01:04:00,VALID,920.378,VALID,0,VALID,89.8796,VALID,-0.0339617,VALID,20.3316,VALID,115,VALID,1.57076,
2003-03-14, 01:05:00,VALID,920.368,VALID,0,VALID,89.9139,VALID,-0.0509425,VALID,20.3154,VALID,127,VALID,1.13013,
2003-03-14, 01:06:00,VALID,920.366,VALID,0,VALID,89.9355,VALID,-0.101885,VALID,20.3221,VALID,137,VALID,1.46832,
2003-03-14, 01:07:00,VALID,920.338,VALID,0,VALID,89.8986,VALID,-0.101885,VALID,20.3022,VALID,135,VALID,1.53214,
2003-03-14, 01:08:00,VALID,920.321,VALID,0,VALID,89.9457,VALID,-0.0509425,VALID,20.3057,VALID,141,VALID,1.77462,
2003-03-14, 01:09:00,VALID,920.305,VALID,0,VALID,89.877,VALID,-0.101885,VALID,20.3095,VALID,117,VALID,1.68056,
2003-03-14, 01:10:00,VALID,920.28,VALID,0,VALID,89.8859,VALID,-0.0679233,VALID,20.3025,VALID,126,VALID,1.57344,
2003-03-14, 01:11:00,VALID,920.267,VALID,0,VALID,89.8058,VALID,-0.0849042,VALID,20.2955,VALID,135,VALID,1.6438,
2003-03-14, 01:12:00,VALID,920.253,VALID,0,VALID,89.3684,VALID,-0.0849042,VALID,20.3122,VALID,129,VALID,1.82465,
2003-03-14, 01:13:00,VALID,920.244,VALID,0,VALID,89.0645,VALID,-0.0679233,VALID,20.3477,VALID,135,VALID,1.53103,
2003-03-14, 01:14:00,VALID,920.222,VALID,0,VALID,89.0492,VALID,-0.0509425,VALID,20.3833,VALID,118,VALID,1.70218,
2003-03-14, 01:15:00,VALID,920.206,VALID,0,VALID,89.2031,VALID,-0.0849042,VALID,20.3997,VALID,134,VALID,1.28168,
2003-03-14, 01:16:00,VALID,920.203,VALID,0,VALID,89.1992,VALID,-0.0339617,VALID,20.393,VALID,112,VALID,1.95536,
2003-03-14, 01:17:00,VALID,920.192,VALID,0,VALID,89.3213,VALID,-0.101885,VALID,20.3733,VALID,138,VALID,0.907471,
2003-03-14, 01:18:00,VALID,920.19,VALID,0,VALID,89.1929,VALID,-0.0509425,VALID,20.3669,VALID,145,VALID,2.32682,
2003-03-14, 01:19:00,VALID,920.165,VALID,0,VALID,89.4421,VALID,0,VALID,20.3699,VALID,100,VALID,1.10982,
2003-03-14, 01:20:00,VALID,920.188,VALID,0,VALID,89.4612,VALID,-0.0339617,VALID,20.3472,VALID,122,VALID,2.14938,
2003-03-14, 01:21:00,VALID,920.175,VALID,0,VALID,89.4676,VALID,-0.0509425,VALID,20.341,VALID,101,VALID,1.47678,
2003-03-14, 01:22:00,VALID,920.168,VALID,0,VALID,89.3938,VALID,0.0509425,VALID,20.3333,VALID,126,VALID,1.63906,
2003-03-14, 01:23:00,VALID,920.165,VALID,0,VALID,89.4599,VALID,0.0509425,VALID,20.3365,VALID,100,VALID,0.999023,
2003-03-14, 01:24:00,VALID,920.15,VALID,0,VALID,89.1814,VALID,0.0679233,VALID,20.333,VALID,133,VALID,1.62478,
2003-03-14, 01:25:00,VALID,920.147,VALID,0,VALID,88.9081,VALID,0.0339617,VALID,20.3492,VALID,142,VALID,2.18326,
2003-03-14, 01:26:00,VALID,920.124,VALID,0,VALID,88.4515,VALID,0.0339617,VALID,20.3877,VALID,141,VALID,2.1688,
2003-03-14, 01:27:00,VALID,920.106,VALID,0,VALID,88.2557,VALID,0.0339617,VALID,20.4362,VALID,122,VALID,1.39605,
2003-03-14, 01:28:00,VALID,920.111,VALID,0,VALID,88.4414,VALID,0.0849042,VALID,20.4687,VALID,85,VALID,1.67478,
2003-03-14, 01:29:00,VALID,920.092,VALID,0,VALID,88.6321,VALID,0.0339617,VALID,20.469,VALID,109,VALID,2.18945,
2003-03-14, 01:30:00,VALID,920.076,VALID,0,VALID,88.5711,VALID,0.0169808,VALID,20.4432,VALID,116,VALID,1.59527,
2003-03-14, 01:31:00,VALID,920.062,VALID,0,VALID,88.5876,VALID,0.0169808,VALID,20.4399,VALID,140,VALID,1.86875,
2003-03-14, 01:32:00,VALID,920.067,VALID,0,VALID,88.7224,VALID,0.0509425,VALID,20.4305,VALID,108,VALID,1.991,
2003-03-14, 01:33:00,VALID,920.06,VALID,0,VALID,88.9475,VALID,0.0339617,VALID,20.4173,VALID,105,VALID,1.37565,
2003-03-14, 01:34:00,VALID,920.044,VALID,0,VALID,89.2857,VALID,0,VALID,20.3914,VALID,119,VALID,1.24531,
2003-03-14, 01:35:00,VALID,920.065,VALID,0,VALID,89.7104,VALID,0.0169808,VALID,20.3556,VALID,119,VALID,1.74634,
2003-03-14, 01:36:00,VALID,920.039,VALID,0,VALID,90.0449,VALID,0.0509425,VALID,20.3042,VALID,130,VALID,1.73199,
2003-03-14, 01:37:00,VALID,920.04,VALID,0,VALID,90.1517,VALID,0.0509425,VALID,20.2721,VALID,130,VALID,1.55536,
2003-03-14, 01:38:00,VALID,920.036,VALID,0,VALID,90.1949,VALID,0.0679233,VALID,20.2458,VALID,115,VALID,1.34683,
2003-03-14, 01:39:00,VALID,920.036,VALID,0,VALID,90.2915,VALID,0.0169808,VALID,20.2334,VALID,112,VALID,1.0803,
2003-03-14, 01:40:00,VALID,920.018,VALID,0,VALID,90.5065,VALID,0.0339617,VALID,20.2301,VALID,118,VALID,1.03549,
2003-03-14, 01:41:00,VALID,919.999,VALID,0,VALID,90.5764,VALID,0.0339617,VALID,20.1943,VALID,130,VALID,1.01172,
2003-03-14, 01:42:00,VALID,919.985,VALID,0,VALID,90.6145,VALID,0.0169808,VALID,20.1717,VALID,119,VALID,1.52344,
2003-03-14, 01:43:00,VALID,919.989,VALID,0,VALID,90.7633,VALID,0.0509425,VALID,20.1658,VALID,94,VALID,0.916071,
2003-03-14, 01:44:00,VALID,919.971,VALID,0,VALID,91.0749,VALID,0.0169808,VALID,20.1528,VALID,101,VALID,0.90625,
2003-03-14, 01:45:00,VALID,919.977,VALID,0,VALID,91.2872,VALID,0.0339617,VALID,20.1133,VALID,91,VALID,0.836155,
2003-03-14, 01:46:00,VALID,919.961,VALID,0,VALID,91.5339,VALID,0.0509425,VALID,20.0847,VALID,111,VALID,0.753571,
2003-03-14, 01:47:00,VALID,919.952,VALID,0,VALID,91.6814,VALID,0.0509425,VALID,20.0656,VALID,130,VALID,1.04712,
2003-03-14, 01:48:00,VALID,919.935,VALID,0,VALID,91.7984,VALID,0.0679233,VALID,20.0295,VALID,124,VALID,0.93967,
2003-03-14, 01:49:00,VALID,919.932,VALID,0,VALID,91.9434,VALID,0.101885,VALID,20.0064,VALID,84,VALID,0.829687,
2003-03-14, 01:50:00,VALID,919.918,VALID,0,VALID,92.0527,VALID,0.0849042,VALID,19.994,VALID,110,VALID,0.974432,
2003-03-14, 01:51:00,VALID,919.918,VALID,0,VALID,92.1201,VALID,0.0679233,VALID,19.9813,VALID,105,VALID,0.968533,
2003-03-14, 01:52:00,VALID,919.905,VALID,0,VALID,92.2002,VALID,-0.0679233,VALID,19.9667,VALID,103,VALID,1.07813,
2003-03-14, 01:53:00,VALID,919.901,VALID,0,VALID,92.3376,VALID,-0.0169808,VALID,19.9532,VALID,89,VALID,1.34253,
2003-03-14, 01:54:00,VALID,919.882,VALID,0,VALID,92.4851,VALID,-0.0509425,VALID,19.9306,VALID,118,VALID,1.16124,
2003-03-14, 01:55:00,VALID,919.865,VALID,0,VALID,92.6224,VALID,-0.0339617,VALID,19.9147,VALID,106,VALID,1.10268,
2003-03-14, 01:56:00,VALID,919.851,VALID,0,VALID,92.7305,VALID,-0.0509425,VALID,19.8916,VALID,112,VALID,1.55256,
2003-03-14, 01:57:00,VALID,919.815,VALID,0,VALID,92.7941,VALID,-0.0509425,VALID,19.8864,VALID,105,VALID,1.63824,
2003-03-14, 01:58:00,VALID,919.811,VALID,0,VALID,92.864,VALID,-0.0339617,VALID,19.8662,VALID,93,VALID,1.64018,
2003-03-14, 01:59:00,VALID,919.793,VALID,0,VALID,92.9696,VALID,-0.0509425,VALID,19.8501,VALID,100,VALID,1.46094,
2003-03-14, 02:00:00,VALID,919.777,VALID,0,VALID,93.0611,VALID,-0.0679233,VALID,19.8404,VALID,93,VALID,0.907552,
2003-03-14, 02:01:00,VALID,919.764,VALID,0,VALID,93.1743,VALID,-0.0679233,VALID,19.8242,VALID,91,VALID,0.914286,
2003-03-14, 02:02:00,VALID,919.759,VALID,0,VALID,93.2544,VALID,-0.0679233,VALID,19.8218,VALID,105,VALID,1.16501,
2003-03-14, 02:03:00,VALID,919.736,VALID,0,VALID,93.2862,VALID,-0.0679233,VALID,19.7919,VALID,86,VALID,0.812934,
2003-03-14, 02:04:00,VALID,919.728,VALID,0,VALID,93.2442,VALID,-0.101885,VALID,19.7857,VALID,96,VALID,1.34621,
2003-03-14, 02:05:00,VALID,919.735,VALID,0,VALID,93.2913,VALID,-0.0509425,VALID,19.7949,VALID,94,VALID,0.848389,
2003-03-14, 02:06:00,VALID,919.734,VALID,0,VALID,93.2518,VALID,-0.0509425,VALID,19.7857,VALID,117,VALID,1.2474,
2003-03-14, 02:07:00,VALID,919.725,VALID,0,VALID,93.1311,VALID,-0.0509425,VALID,19.7952,VALID,104,VALID,1.23192,
2003-03-14, 02:08:00,VALID,919.717,VALID,0,VALID,93.0929,VALID,-0.0339617,VALID,19.818,VALID,103,VALID,1.00852,
2003-03-14, 02:09:00,VALID,919.709,VALID,0,VALID,93.1247,VALID,-0.0509425,VALID,19.8113,VALID,104,VALID,0.826172,
2003-03-14, 02:10:00,VALID,919.706,VALID,0,VALID,93.1501,VALID,-0.101885,VALID,19.815,VALID,111,VALID,1.61696,
2003-03-14, 02:11:00,VALID,919.698,VALID,0,VALID,93.0929,VALID,-0.0339617,VALID,19.8078,VALID,105,VALID,1.57739,
2003-03-14, 02:12:00,VALID,919.687,VALID,0,VALID,92.9696,VALID,-0.0509425,VALID,19.821,VALID,109,VALID,1.81597,
2003-03-14, 02:13:00,VALID,919.672,VALID,0,VALID,92.9797,VALID,-0.0339617,VALID,19.8307,VALID,148,VALID,0.893304,
2003-03-14, 02:14:00,VALID,919.69,VALID,0,VALID,92.8742,VALID,0,VALID,19.8466,VALID,133,VALID,1.28149,
2003-03-14, 02:15:00,VALID,919.652,VALID,0,VALID,92.7534,VALID,-0.0339617,VALID,19.8533,VALID,135,VALID,1.06727,
2003-03-14, 02:16:00,VALID,919.64,VALID,0,VALID,92.6606,VALID,-0.0169808,VALID,19.8536,VALID,130,VALID,1.44777,
2003-03-14, 02:17:00,VALID,919.631,VALID,0,VALID,92.5652,VALID,-0.0169808,VALID,19.8695,VALID,123,VALID,1.40137,
2003-03-14, 02:18:00,VALID,919.607,VALID,0,VALID,92.5525,VALID,-0.0169808,VALID,19.8759,VALID,128,VALID,1.13086,
2003-03-14, 02:19:00,VALID,919.609,VALID,0,VALID,92.4825,VALID,-0.0339617,VALID,19.8856,VALID,140,VALID,1.06696,
2003-03-14, 02:20:00,VALID,919.628,VALID,0,VALID,92.3668,VALID,-0.0169808,VALID,19.8859,VALID,106,VALID,1.80777,
2003-03-14, 02:21:00,VALID,919.63,VALID,0,VALID,92.3465,VALID,0,VALID,19.9015,VALID,91,VALID,1.67556,
2003-03-14, 02:22:00,VALID,919.621,VALID,0,VALID,92.4507,VALID,-0.0169808,VALID,19.8983,VALID,101,VALID,1.14397,
2003-03-14, 02:23:00,VALID,919.636,VALID,0,VALID,92.5334,VALID,-0.0169808,VALID,19.8983,VALID,114,VALID,1.38184,
2003-03-14, 02:24:00,VALID,919.619,VALID,0,VALID,92.6084,VALID,-0.0169808,VALID,19.8958,VALID,98,VALID,1.23589,
2003-03-14, 02:25:00,VALID,919.609,VALID,0,VALID,92.7178,VALID,-0.0339617,VALID,19.8894,VALID,135,VALID,0.51317,
2003-03-14, 02:26:00,VALID,919.583,VALID,0,VALID,92.8831,VALID,0,VALID,19.8531,VALID,104,VALID,0.958333,
2003-03-14, 02:27:00,VALID,919.578,VALID,0,VALID,92.9581,VALID,0,VALID,19.8471,VALID,109,VALID,1.58333,
2003-03-14, 02:28:00,VALID,919.567,VALID,0,VALID,93.0357,VALID,-0.0339617,VALID,19.828,VALID,110,VALID,1.55625,
2003-03-14, 02:29:00,VALID,919.557,VALID,0,VALID,93.0993,VALID,-0.0339617,VALID,19.8148,VALID,107,VALID,1.43042,
2003-03-14, 02:30:00,VALID,919.552,VALID,0,VALID,93.1578,VALID,-0.0339617,VALID,19.8123,VALID,113,VALID,1.39128,
2003-03-14, 02:31:00,VALID,919.545,VALID,0,VALID,93.187,VALID,-0.0339617,VALID,19.7986,VALID,127,VALID,1.26629,
2003-03-14, 02:32:00,VALID,919.54,VALID,0,VALID,93.1705,VALID,-0.0509425,VALID,19.7986,VALID,124,VALID,1.05114,
2003-03-14, 02:33:00,VALID,919.528,VALID,0,VALID,93.2023,VALID,-0.0509425,VALID,19.7984,VALID,120,VALID,1.49284,
2003-03-14, 02:34:00,VALID,919.522,VALID,0,VALID,93.2277,VALID,0,VALID,19.8116,VALID,118,VALID,1.0654,
2003-03-14, 02:35:00,VALID,919.53,VALID,0,VALID,93.304,VALID,-0.0339617,VALID,19.7922,VALID,108,VALID,0.754395,
2003-03-14, 02:36:00,VALID,919.501,VALID,0,VALID,93.3027,VALID,-0.0169808,VALID,19.7857,VALID,105,VALID,1.16775,
2003-03-14, 02:37:00,VALID,919.487,VALID,0,VALID,93.29,VALID,-0.0849042,VALID,19.7827,VALID,112,VALID,0.912277,
2003-03-14, 02:38:00,VALID,919.468,VALID,0,VALID,93.3549,VALID,-0.101885,VALID,19.7862,VALID,107,VALID,1.1527,
2003-03-14, 02:39:00,VALID,919.454,VALID,0,VALID,93.3943,VALID,-0.0509425,VALID,19.7696,VALID,87,VALID,1.24544,
2003-03-14, 02:40:00,VALID,919.429,VALID,0,VALID,93.5113,VALID,-0.0679233,VALID,19.7599,VALID,77,VALID,1.03013,
2003-03-14, 02:41:00,VALID,919.429,VALID,0,VALID,93.5723,VALID,-0.0679233,VALID,19.7372,VALID,96,VALID,1.26563,
2003-03-14, 02:42:00,VALID,919.418,VALID,0,VALID,93.6155,VALID,-0.0849042,VALID,19.738,VALID,79,VALID,1.12044,
2003-03-14, 02:43:00,VALID,919.402,VALID,0,VALID,93.3866,VALID,-0.101885,VALID,19.728,VALID,109,VALID,2.57991,
2003-03-14, 02:44:00,VALID,919.387,VALID,0,VALID,93.2595,VALID,-0.0679233,VALID,19.7566,VALID,106,VALID,1.68229,
2003-03-14, 02:45:00,VALID,919.368,VALID,0,VALID,93.2302,VALID,-0.0849042,VALID,19.7797,VALID,114,VALID,1.48199,
2003-03-14, 02:46:00,VALID,919.367,VALID,0,VALID,93.1743,VALID,-0.0509425,VALID,19.7825,VALID,126,VALID,1.35737,
2003-03-14, 02:47:00,VALID,919.375,VALID,0,VALID,93.1488,VALID,-0.0849042,VALID,19.7964,VALID,129,VALID,1.31152,
2003-03-14, 02:48:00,VALID,919.386,VALID,0,VALID,93.0675,VALID,-0.0509425,VALID,19.7894,VALID,125,VALID,1.70443,
2003-03-14, 02:49:00,VALID,919.38,VALID,0,VALID,92.9339,VALID,-0.0339617,VALID,19.7887,VALID,134,VALID,1.02991,
2003-03-14, 02:50:00,VALID,919.369,VALID,0,VALID,92.9034,VALID,-0.0509425,VALID,19.8183,VALID,143,VALID,0.975379,
2003-03-14, 02:51:00,VALID,919.357,VALID,0,VALID,92.8513,VALID,-0.0509425,VALID,19.822,VALID,130,VALID,1.38303,
2003-03-14, 02:52:00,VALID,919.356,VALID,0,VALID,92.7839,VALID,0,VALID,19.817,VALID,139,VALID,1.67121,
2003-03-14, 02:53:00,VALID,919.333,VALID,0,VALID,92.7012,VALID,0.0169808,VALID,19.83,VALID,113,VALID,1.17896,
2003-03-14, 02:54:00,VALID,919.32,VALID,0,VALID,92.7343,VALID,0,VALID,19.8466,VALID,129,VALID,0.953125,
2003-03-14, 02:55:00,VALID,919.322,VALID,0,VALID,92.7419,VALID,0.0169808,VALID,19.8429,VALID,138,VALID,1.00045,
2003-03-14, 02:56:00,VALID,919.315,VALID,0,VALID,92.7712,VALID,0.0169808,VALID,19.8431,VALID,122,VALID,1.06937,
2003-03-14, 02:57:00,VALID,919.322,VALID,0,VALID,92.7712,VALID,0,VALID,19.8272,VALID,99,VALID,1.10655,
2003-03-14, 02:58:00,VALID,919.324,VALID,0,VALID,92.8755,VALID,0,VALID,19.813,VALID,121,VALID,0.577009,
2003-03-14, 02:59:00,VALID,919.313,VALID,0,VALID,92.7407,VALID,0.0509425,VALID,19.817,VALID,136,VALID,1.2688,
2003-03-14, 03:00:00,VALID,919.303,VALID,0,VALID,92.5219,VALID,0.0339617,VALID,19.8305,VALID,122,VALID,1.48199,
2003-03-14, 03:01:00,VALID,919.301,VALID,0,VALID,92.4584,VALID,0.101885,VALID,19.8523,VALID,136,VALID,1.12969,
2003-03-14, 03:02:00,VALID,919.284,VALID,0,VALID,92.2397,VALID,0.0679233,VALID,19.8655,VALID,145,VALID,1.51349,
2003-03-14, 03:03:00,VALID,919.267,VALID,0,VALID,92.0616,VALID,0.0679233,VALID,19.8712,VALID,125,VALID,0.825521,
2003-03-14, 03:04:00,VALID,919.275,VALID,0,VALID,92.0782,VALID,0.101885,VALID,19.9075,VALID,128,VALID,1.02299,
2003-03-14, 03:05:00,VALID,919.262,VALID,0,VALID,91.9167,VALID,0.0679233,VALID,19.9135,VALID,126,VALID,1.42554,
2003-03-14, 03:06:00,VALID,919.249,VALID,0,VALID,91.8709,VALID,0.0339617,VALID,19.9264,VALID,153,VALID,1.14518,
2003-03-14, 03:07:00,VALID,919.231,VALID,0,VALID,91.848,VALID,-0.101885,VALID,19.9416,VALID,146,VALID,1.21674,
2003-03-14, 03:08:00,VALID,919.216,VALID,0,VALID,91.834,VALID,-0.0849042,VALID,19.9311,VALID,154,VALID,1.11577,
2003-03-14, 03:09:00,VALID,919.205,VALID,0,VALID,91.8658,VALID,-0.0509425,VALID,19.9376,VALID,139,VALID,1.1135,
2003-03-14, 03:10:00,VALID,919.199,VALID,0,VALID,91.9574,VALID,-0.0849042,VALID,19.9383,VALID,118,VALID,1.29067,
2003-03-14, 03:11:00,VALID,919.199,VALID,0,VALID,91.965,VALID,-0.101885,VALID,19.9324,VALID,112,VALID,1.36084,
2003-03-14, 03:12:00,VALID,919.2,VALID,0,VALID,91.8963,VALID,-0.0339617,VALID,19.9088,VALID,130,VALID,1.32747,
2003-03-14, 03:13:00,VALID,919.184,VALID,0,VALID,91.876,VALID,-0.0849042,VALID,19.9254,VALID,134,VALID,0.883929,
2003-03-14, 03:14:00,VALID,919.162,VALID,0,VALID,91.7018,VALID,-0.101885,VALID,19.9252,VALID,145,VALID,1.89512,
2003-03-14, 03:15:00,VALID,919.163,VALID,0,VALID,91.5365,VALID,-0.0849042,VALID,19.9575,VALID,137,VALID,1.57595,
2003-03-14, 03:16:00,VALID,919.143,VALID,0,VALID,91.4843,VALID,-0.101885,VALID,19.9632,VALID,140,VALID,1.21496,
2003-03-14, 03:17:00,VALID,919.133,VALID,0,VALID,91.3025,VALID,-0.0849042,VALID,19.9868,VALID,114,VALID,1.13818,
2003-03-14, 03:18:00,VALID,919.118,VALID,0,VALID,91.2313,VALID,-0.0849042,VALID,19.9898,VALID,131,VALID,1.20269,
2003-03-14, 03:19:00,VALID,919.114,VALID,0,VALID,91.2961,VALID,-0.0849042,VALID,20.006,VALID,110,VALID,0.965179,
2003-03-14, 03:20:00,VALID,919.092,VALID,0,VALID,91.3979,VALID,-0.0679233,VALID,20.0062,VALID,85,VALID,1.2242,
2003-03-14, 03:21:00,VALID,919.086,VALID,0,VALID,91.4487,VALID,-0.0849042,VALID,19.9868,VALID,97,VALID,1.43945,
2003-03-14, 03:22:00,VALID,919.078,VALID,0,VALID,91.4741,VALID,0,VALID,19.9898,VALID,86,VALID,1.43973,
2003-03-14, 03:23:00,VALID,919.081,VALID,0,VALID,91.5949,VALID,-0.0169808,VALID,19.9731,VALID,92,VALID,0.86499,
2003-03-14, 03:24:00,VALID,919.088,VALID,0,VALID,91.7081,VALID,-0.0169808,VALID,19.9669,VALID,92,VALID,0.894531,
2003-03-14, 03:25:00,VALID,919.088,VALID,0,VALID,91.6573,VALID,0,VALID,19.9542,VALID,108,VALID,1.05022,
2003-03-14, 03:26:00,VALID,919.084,VALID,0,VALID,91.6916,VALID,-0.0339617,VALID,19.9513,VALID,121,VALID,1.09044,
2003-03-14, 03:27:00,VALID,918.669,VALID,0,VALID,91.7628,VALID,-0.0169808,VALID,19.9508,VALID,122,VALID,0.528646,
2003-03-14, 03:28:00,VALID,919.088,VALID,0,VALID,91.876,VALID,-0.0169808,VALID,19.9443,VALID,91,VALID,0.598214,
2003-03-14, 03:29:00,VALID,919.105,VALID,0,VALID,92.0222,VALID,0,VALID,19.9309,VALID,125,VALID,0.762207,
2003-03-14, 03:30:00,VALID,919.108,VALID,0,VALID,92.0413,VALID,0,VALID,19.9085,VALID,142,VALID,1.02517,
2003-03-14, 03:31:00,VALID,919.111,VALID,0,VALID,91.9866,VALID,-0.0169808,VALID,19.9055,VALID,109,VALID,0.928125,
2003-03-14, 03:32:00,VALID,919.115,VALID,0,VALID,91.9713,VALID,-0.0169808,VALID,19.915,VALID,102,VALID,0.942945,